Retour au catalogue

ONEWEB-0136

ActifCommunicationsPO
NORAD 47282·PAYLOAD·🇬🇧 United Kingdom

Lancé Dec 18, 2020 depuis Vostochny Cosmodrome

Loading…

Prochains Passages (prochaines 24 heures)

TLE

FraisSource: CelesTrak SupGP

Époque: Sep 14, 2026, 13:33 UTC

1 47282C 20100AA  26257.56472222  .00001973  00000+0  54915-2 0  2570
2 47282  87.8983 332.9088 0001731  93.2040  16.4647 13.12437331    18

Suivez ONEWEB-0136 en temps réel avec AllMySat

Download on the App Store